Skip Page Navigation
NASA JPL Caltech
NASA Logo - Jet Propulsion Laboratory + View the NASA Portal
+ Center for Near-Earth Object Studies
JPL Home Earth Solar System Stars & Galaxies Technology
JPL Solar System Dynamics
BODIES ORBITS EPHEMERIDES TOOLS PHYSICAL DATA DISCOVERY FAQ SITE MAP
JPL Small-Body Database Browser
Search: [ help ]  
186104 (2001 TZ48)
Classification: Inner Main-belt Asteroid          SPK-ID: 2186104
Ephemeris | Orbit Diagram | Orbital Elements | Mission Design | Physical Parameters | Discovery Circumstances ]

[ show orbit diagram ]
Orbital Elements at Epoch 2459200.5 (2020-Dec-17.0) TDB
Reference: JPL 26 (heliocentric ecliptic J2000)
 Element Value Uncertainty (1-sigma)   Units 
e .05669035189010439 3.89e-08  
a 1.913599112196576 6.6828e-09 au
q 1.805116505149561 7.4543e-08 au
i 19.53744707468814 5.5133e-06 deg
node 230.5349863532969 1.0594e-05 deg
peri 138.2533413992327 4.6419e-05 deg
M 104.4273982680228 4.5694e-05 deg
tp 2458920.029734675278
(2020-Mar-11.52973468)
0.00012231 TDB
period 966.8851009555227
2.65
5.065e-06
1.387e-08
d
yr
n .3723296590714145 1.9504e-09 deg/d
Q 2.022081719243591 7.0617e-09 au
  Orbit Determination Parameters
   # obs. used (total)      744  
   data-arc span      9456 days (25.89 yr)  
   first obs. used      1995-05-30  
   last obs. used      2021-04-19  
   planetary ephem.      DE441  
   SB-pert. ephem.      SB441-N16  
   condition code      0  
   norm. resid. RMS      .47927  
   source      ORB  
   producer      Otto Matic  
   solution date      2021-May-04 10:13:43  

Additional Information
 Earth MOID = .830113 au 
 Jupiter MOID = 3.16719 au 
 T_jup = 3.860 
[ show covariance matrix ]

Ephemeris | Orbit Diagram | Orbital Elements | Mission Design | Physical Parameters | Discovery Circumstances ]

Physical Parameter Table
Parameter Symbol Value Units Sigma Reference Notes
absolute magnitude H 16.47   n/a MPCxxxxx  

186104 (2001 TZ48)          Discovered 2001-Oct-15 by LINEAR at Socorro
Reference: 20080520/Numbers.arcLast Updated: 2008-05-22
Ephemeris | Orbit Diagram | Orbital Elements | Mission Design | Physical Parameters | Discovery Circumstances ]
ABOUT SSD CREDITS/AWARDS PRIVACY/COPYRIGHT GLOSSARY LINKS
FirstGov 2021-Jun-23 00:26 UT
(server date/time)  
NASA Home Page
Site Manager:   Ryan S. Park
Webmaster  Alan B. Chamberlin